Rome Ciampino, Italy

3:28 PM CET on December 12, 2017 (GMT +0100)
Ciampino

Weather History for LIRA - February, 2014

Change the Weather History Date:

Friday, February 7, 2014

  Actual Average Record
Temperature  
Mean Temperature 48 °F -  
Max Temperature 58 °F 56 °F 64 °F (2011)
Min Temperature 37 °F 39 °F 28 °F (2003)
Degree Days  
Heating Degree Days 18    
Moisture  
Dew Point 43 °F    
Average Humidity 79    
Maximum Humidity 93    
Minimum Humidity 55    
Precipitation  
Precipitation 0.02 in 0.12 in - ()
Sea Level Pressure  
Sea Level Pressure 29.98 in    
Wind  
Wind Speed 6 mph ()    
Max Wind Speed 21 mph    
Max Gust Speed 31 mph    
Visibility 6.4 miles    
Events Rain    
Averages and records for this station are not official NWS values.
T = Trace of Precipitation, MM = Missing Value Source: Averaged Metar Reports

Daily Weather History Graph

Daily Weather History Graph

Search for Another Location

Airport or City:

Trip Planner

Search our weather history database for the weather conditions in past years. The results will help you decide how hot, cold, wet, or windy it might be!

Date:

Astronomy

Feb. 07, 2014 Rise Set
Actual Time 7:15 AM CET 5:32 PM CET
Civil Twilight 6:46 AM CET 6:01 PM CET
Nautical Twilight 6:13 AM CET 6:34 PM CET
Astronomical Twilight 5:41 AM CET 7:07 PM CET
Moon 11:31 AM CET (2/7) 1:15 AM CET (2/7)
Length of Visible Light 11h 14m
Length of Day
10h 16m
First Quarter, 56% of the Moon is Illuminated
Feb 7
First Quarter
Feb 15
Full
Feb 22
Last Quarter
Mar 1
New
Mar 8
First Quarter

Hourly Weather History & Observations

Time (CET) Temp. Windchill Dew Point Humidity Pressure Visibility Wind Dir Wind Speed Gust Speed Precip Events Conditions
12:15 AM 41.0 °F - 39.2 °F 93% 30.01 in - Calm Calm - N/A   Clear
12:45 AM 41.0 °F - 39.2 °F 93% 30.01 in - Calm Calm - N/A   Clear
1:00 AM 41 °F - 38 °F 87% 30.04 in 6 mi Calm Calm - -  
1:15 AM 41.0 °F - 39.2 °F 93% 30.01 in - ESE 1.2 mph - N/A   Clear
1:45 AM 41.0 °F 37.1 °F 39.2 °F 93% 30.01 in - ESE 5.8 mph - N/A   Clear
2:15 AM 41.0 °F 39.0 °F 39.2 °F 93% 30.01 in - East 3.5 mph - N/A   Clear
2:45 AM 42.8 °F 39.3 °F 39.2 °F 87% 30.01 in - ESE 5.8 mph - N/A   Clear
3:15 AM 42.8 °F - 39.2 °F 87% 30.01 in - Calm Calm - N/A   Clear
3:45 AM 39.2 °F - 37.4 °F 93% 30.01 in - Calm Calm - N/A   Clear
4:00 AM 39 °F - 37 °F 89% 30.04 in 6 mi Calm Calm - -  
4:15 AM 39.2 °F - 35.6 °F 87% 30.01 in - Calm Calm - N/A   Clear
4:45 AM 37.4 °F - 35.6 °F 93% 30.01 in - Calm Calm - N/A   Clear
5:15 AM 37.4 °F - 35.6 °F 93% 30.01 in - Calm Calm - N/A   Clear
5:45 AM 37.4 °F - 35.6 °F 93% 30.01 in - Calm Calm - N/A   Clear
6:15 AM 37.4 °F - 35.6 °F 93% 30.01 in - Calm Calm - N/A   Clear
6:45 AM 37.4 °F - 35.6 °F 93% 30.01 in - Calm Calm - N/A   Clear
7:00 AM 37 °F - 36 °F 93% 30.05 in 6 mi Calm Calm - -  
7:15 AM 37.4 °F - 35.6 °F 93% 30.01 in - Calm Calm - N/A   Clear
7:45 AM 41.0 °F - 39.2 °F 93% 30.04 in - Calm Calm - N/A   Clear
8:15 AM 41.0 °F - 39.2 °F 93% 30.04 in - Calm Calm - N/A   Clear
8:45 AM 44.6 °F - 42.8 °F 93% 30.04 in - Calm Calm - N/A   Clear
9:15 AM 46.4 °F - 44.6 °F 93% 30.04 in - Calm Calm - N/A   Clear
9:45 AM 48.2 °F - 44.6 °F 87% 30.04 in - NNW 3.5 mph - N/A   Clear
10:00 AM 49 °F - 45 °F 80% 30.05 in 12 mi NNW 3.5 mph - -  
10:15 AM 55.4 °F - 42.8 °F 63% 30.04 in - South 10.4 mph - N/A   Clear
10:45 AM 55.4 °F - 42.8 °F 63% 30.04 in - SSE 13.8 mph - N/A   Clear
11:15 AM 57.2 °F - 44.6 °F 63% 30.04 in 6.2 mi SSE 13.8 mph - N/A   Partly Cloudy
11:45 AM 57.2 °F - 46.4 °F 67% 30.04 in 6.2 mi SSE 15.0 mph - N/A   Partly Cloudy
12:15 PM 57.2 °F - 46.4 °F 67% 30.01 in 6.2 mi SSE 16.1 mph - N/A   Partly Cloudy
12:45 PM 59.0 °F - 48.2 °F 67% 29.98 in 6.2 mi SSE 18.4 mph - N/A   Partly Cloudy
1:00 PM 58 °F - 47 °F 58% 30.01 in 12 mi SSE 18.4 mph - -   Scattered Clouds
1:15 PM 57.2 °F - 46.4 °F 67% 29.98 in 6.2 mi SSE 17.3 mph - N/A   Partly Cloudy
1:45 PM 59.0 °F - 46.4 °F 63% 29.98 in 6.2 mi SSE 15.0 mph - N/A   Partly Cloudy
2:15 PM 59.0 °F - 46.4 °F 63% 29.95 in 6.2 mi SSE 18.4 mph - N/A   Partly Cloudy
2:45 PM 57.2 °F - 46.4 °F 67% 29.95 in 6.2 mi SE 19.6 mph - N/A   Partly Cloudy
3:15 PM 57.2 °F - 46.4 °F 67% 29.95 in 6.2 mi SSE 17.3 mph - N/A   Partly Cloudy
3:45 PM 57.2 °F - 44.6 °F 63% 29.95 in 6.2 mi SSE 17.3 mph - N/A   Partly Cloudy
4:00 PM 57 °F - 45 °F 55% 29.96 in 12 mi SSE 17.3 mph - -   Scattered Clouds
4:15 PM 57.2 °F - 46.4 °F 67% 29.95 in 6.2 mi SE 13.8 mph - N/A   Partly Cloudy
4:45 PM 57.2 °F - 44.6 °F 63% 29.95 in 6.2 mi SSE 12.7 mph - N/A   Partly Cloudy
5:15 PM 53.6 °F - 44.6 °F 72% 29.92 in 6.2 mi SSE 13.8 mph - N/A   Scattered Clouds
5:45 PM 55.4 °F - 46.4 °F 72% 29.92 in 6.2 mi SSE 13.8 mph - N/A   Scattered Clouds
6:15 PM 53.6 °F - 46.4 °F 77% 29.92 in 6.2 mi SE 11.5 mph - N/A   Scattered Clouds
6:45 PM 53.6 °F - 46.4 °F 77% 29.92 in 6.2 mi SSE 6.9 mph - N/A   Scattered Clouds
7:00 PM 53 °F - 46 °F 70% 29.94 in 7 mi SSE 6.9 mph - -   Partly Cloudy
7:15 PM 53.6 °F - 44.6 °F 72% 29.92 in 6.2 mi South 9.2 mph - N/A   Mostly Cloudy
7:45 PM 53.6 °F - 42.8 °F 67% 29.92 in 6.2 mi SSE 17.3 mph - N/A   Mostly Cloudy
8:15 PM 55.4 °F - 44.6 °F 67% 29.92 in 6.2 mi SE 18.4 mph 31.1 mph N/A   Mostly Cloudy
8:45 PM 55.4 °F - 46.4 °F 72% 29.92 in 6.2 mi SSE 19.6 mph - N/A   Mostly Cloudy
9:15 PM 53.6 °F - 46.4 °F 77% 29.92 in 4.3 mi SSE 20.7 mph - N/A Rain Light Rain
9:45 PM 51.8 °F - 48.2 °F 88% 29.92 in 4.3 mi SSE 19.6 mph - N/A Rain Light Rain
10:00 PM 52 °F - 48 °F 81% 29.94 in 4 mi SSE 19.6 mph - - Rain Light Rain
10:15 PM 51.8 °F - 48.2 °F 88% 29.92 in 4.3 mi SSE 18.4 mph - N/A Rain Light Rain
10:45 PM 51.8 °F - 48.2 °F 88% 29.92 in 4.3 mi SSE 15.0 mph - N/A Rain Light Rain
11:15 PM 51.8 °F - 48.2 °F 88% 29.92 in 5.0 mi SSE 12.7 mph - N/A   Mostly Cloudy
11:45 PM 51.8 °F - 48.2 °F 88% 29.92 in 6.2 mi SSE 17.3 mph - N/A   Mostly Cloudy